EW8053 Weather Reports


Display with metric or nautical units.
time (UTC)temp
F
wind
direction
speed
MPH
gust
MPH
rain 1hr
in
rain 24hr
in
rain mn
in
humidity
%
barometer
mb
20260504160105 66 156 6.0 10.0 0.00 0.01 0.00 58 1008.6
20260504140111 60 193 3.0 10.0 0.00 0.01 0.00 62 1009.2
20260504120110 52 0 1.0 4.0 0.00 0.01 0.00 68 1009.6
20260504110107 49 0 1.0 4.0 0.00 0.01 0.00 69 1009.3
20260504081558 50 201 1.0 6.0 0.00 0.01 0.00 65 1010.4
20260504060107 52 0 1.0 5.0 0.00 0.01 0.00 61 1011.6
20260504044600 51 249 0.0 4.0 0.00 0.01 0.00 64 1012.2
20260504043101 51 127 0.0 3.0 0.00 0.01 0.00 65 1012.3
20260504041557 51 132 0.0 3.0 0.00 0.01 0.00 65 1012.4
20260504040056 51 141 1.0 3.0 0.00 0.01 0.00 66 1012.5
20260504034557 51 167 0.0 3.0 0.00 0.01 0.01 66 1012.7
20260504033115 51 145 1.0 4.0 0.00 0.01 0.01 66 1012.9
20260504031603 51 132 1.0 4.0 0.00 0.01 0.01 66 1013.1
20260504030056 50 143 0.0 3.0 0.00 0.01 0.01 67 1013.2
20260504024602 50 142 0.0 4.0 0.00 0.01 0.01 66 1013.3
20260504023058 50 125 1.0 5.0 0.00 0.01 0.01 67 1013.3
20260504021556 49 129 1.0 4.0 0.00 0.01 0.01 69 1013.3
20260504020058 49 110 1.0 5.0 0.00 0.01 0.01 73 1013.4
20260504014559 48 0 1.0 3.0 0.00 0.01 0.01 77 1013.3
20260504013107 48 139 0.0 1.0 0.00 0.01 0.01 80 1013.3
20260504011600 48 0 0.0 1.0 0.00 0.01 0.01 81 1013.4
20260504004620 48 124 0.0 2.0 0.00 0.01 0.01 80 1013.3
20260504003102 48 0 0.0 2.0 0.00 0.01 0.01 79 1013.4
20260504001608 48 0 0.0 1.0 0.00 0.01 0.01 79 1013.7
20260503234600 49 0 0.0 3.0 0.00 0.01 0.01 80 1013.5
20260503233057 49 120 0.0 3.0 0.00 0.01 0.01 81 1013.6
20260503231600 49 127 0.0 3.0 0.01 0.01 0.01 82 1013.7
20260503230110 48 0 0.0 1.0 0.01 0.01 0.01 82 1014.1
20260503224559 49 0 0.0 1.0 0.01 0.01 0.01 82 1014.3
20260503223101 49 0 0.0 6.0 0.01 0.01 0.01 77 1015.5
20260503221600 50 178 2.0 8.0 0.00 0.00 0.00 70 1015.8
20260503214607 54 232 5.0 19.0 0.00 0.00 0.00 49 1015.2
20260503213102 57 191 7.0 16.0 0.00 0.00 0.00 43 1014.9
20260503211605 58 253 5.0 12.0 0.00 0.00 0.00 38 1014.6
20260503210100 59 203 4.0 11.0 0.00 0.00 0.00 38 1014.7
20260503204600 59 226 5.0 11.0 0.00 0.00 0.00 38 1014.8
20260503203106 59 280 4.0 14.0 0.00 0.00 0.00 35 1014.9
20260503201600 61 179 3.0 12.0 0.00 0.00 0.00 36 1015.0
20260503200059 61 233 3.0 12.0 0.00 0.00 0.00 37 1015.1
20260503194559 61 290 4.0 15.0 0.00 0.00 0.00 35 1015.2
20260503193101 61 156 4.0 14.0 0.00 0.00 0.00 36 1015.5
20260503191559 61 293 5.0 13.0 0.00 0.00 0.00 35 1015.6
20260503190100 60 179 4.0 12.0 0.00 0.00 0.00 37 1015.9
20260503184608 60 249 6.0 12.0 0.00 0.00 0.00 36 1016.1
20260503183103 60 143 5.0 10.0 0.00 0.00 0.00 37 1016.2
20260503181603 60 216 4.0 17.0 0.00 0.00 0.00 39 1016.5
20260503180100 60 181 5.0 9.0 0.00 0.00 0.00 36 1016.8
20260503174618 58 321 5.0 18.0 0.00 0.00 0.00 37 1017.0
20260503173059 59 154 5.0 13.0 0.00 0.00 0.00 38 1017.3
20260503171558 59 292 3.0 12.0 0.00 0.00 0.00 37 1017.3